Location: Moncton
(46.0878°N, 64.7782°W)
Time: 14:48:13
(UTC-04:00)

ISS - Visible Passes

Search period start: 06 December 2021 00:00
Search period end: 16 December 2021 00:00
Orbit: 417 x 422 km, 51.6° (Epoch: 06 December)

Date Brightness Start Highest point End Pass type
(mag) Time Alt. Az. Time Alt. Az. Time Alt. Az.
06 Dec -3.6 17:40:10 10° WNW 17:43:34 74° SSW 17:46:56 10° SE visible
06 Dec -0.7 19:18:23 10° WSW 19:19:52 12° SW 19:20:29 12° SW visible
07 Dec -1.1 18:30:09 10° W 18:32:39 19° SW 18:35:10 10° S visible
08 Dec -1.7 17:42:23 10° WNW 17:45:24 30° SW 17:48:25 10° SSE visible
10 Dec -0.3 17:45:33 10° WSW 17:47:00 12° SW 17:48:27 10° SSW visible
